Regional Weather Roundup
Issued by NWS

Home | Current Version | Previous Version | Graphics & Text | Print | Product List | Glossary On
Versions: 1 2 3 4 5 6 7 8 9 10 11 12 13 14 15 16 17 18 19 20 21 22 23 24 25 26 27 28 29 30 31 32 33 34 35 36 37 38 39 40 41 42 43 44 45 46 47 48 49 50
000
ASUS43 KMPX 230501
RWRMN
WEATHER ROUNDUP FOR MINNESOTA
NATIONAL WEATHER SERVICE TWIN CITIES/CHANHASSEN MN
1200 AM CDT THU OCT 23 2014


NOTE: "FAIR" INDICATES FEW OR NO CLOUDS BELOW 12,000 FEET WITH NO
SIGNIFICANT WEATHER AND/OR OBSTRUCTIONS TO VISIBILITY. N/A MEANS
CURRENT SKY AND/OR WEATHER CONDITIONS ARE NOT AVAILABLE.

MNZ060>063-068>070-230600-
   Twin Cities Metro

CITY           SKY/WX    TMP DP  RH WIND       PRES   REMARKS
TWIN CITIES    CLOUDY    55  41  59 S8        30.04F
ST PAUL        MOCLDY    55  41  59 S12       30.05S
CRYSTAL        MOCLDY    57  41  55 S10       30.01F
BLAINE         CLOUDY    57  43  58 S10       30.02F
LAKEVILLE      MOCLDY    54  43  66 S9        30.03F
EDEN PRAIRIE   CLOUDY    56  42  59 S13       30.02F
SOUTH ST PAUL  MOCLDY    56  40  55 S12       30.04R
LAKE ELMO      FAIR      54  41  62 S13       30.05S
$$
MNZ001>005-007-008-013>017-022>024-027-028-230600-
   Northwest Minnesota

CITY           SKY/WX    TMP DP  RH WIND       PRES   REMARKS
BEMIDJI        CLOUDY    52  48  87 S13       29.91S
HALLOCK        PTCLDY    50  48  93 S9        29.81S
ROSEAU         CLOUDY    54  48  82 S9        29.83S
WARROAD        CLOUDY    54  48  82 S7        29.84S
THIEF RVR FALL CLOUDY    52  50  93 S9        29.86S
CROOKSTON      PTCLDY    50  48  93 S9        29.87S
FOSSTON        CLOUDY    52  50  93 S8        29.90S
DETROIT LAKES  CLOUDY    52  50  93 S5        29.93S FOG
MOORHEAD       CLEAR     54  54 100 S6        29.91S
PARK RAPIDS    CLOUDY    51  51 100 S9        29.92F FOG
MAHNOMEN       FAIR      52  51  97 SW8       29.90S
$$
MNZ006-009>011-018-025>026-230600-
   North Central Minnesota

CITY           SKY/WX    TMP DP  RH WIND       PRES   REMARKS
BAUDETTE       CLOUDY    53  45  74 S13       29.87S
FLAG ISLAND    CLOUDY    50  46  87 S13       29.81F
INTL FALLS     CLOUDY    53  41  63 S10       29.91S
WASKISH        LGT RAIN  52  48  87 CALM      29.89S
BIG FORK       LGT RAIN  52  45  76 S7        29.94S
LONGVILLE      RAIN      50  46  87 S5        29.94S
GRAND RAPIDS   CLOUDY    50  39  66 S16G22    29.95F
CRANE LAKE     MOCLDY    50  37  62 S6        29.96F
ORR            MOCLDY    50  36  57 S10G16    29.93S
COOK           MOCLDY    50  37  62 S7        29.97S
WALKER         RAIN      50  47  92 S6        29.93S
$$
MNZ012-019>021-037-230600-
   Northeast Minnesota

CITY           SKY/WX    TMP DP  RH WIND       PRES   REMARKS
DULUTH         MOCLDY    50  35  56 S9        30.01F
ELY            PTCLDY    46  34  61 S6        29.99F
HIBBING        MOCLDY    50  36  58 S6        29.98F
EVELETH        MOCLDY    45  36  70 S6        30.00S
DULUTH HARBOR  MOCLDY    54  39  58 CALM      30.03S
TWO HARBORS    MOCLDY    46  28  49 CALM      30.01F
SILVER BAY     MOCLDY    45  37  76 CALM      30.01F
GRAND MARAIS     N/A     46  42  86 CALM      30.05F
G MARAIS ARPRT MOCLDY    43  34  70 S6        30.05F
$$
MNZ029>031-032-039>041-046>048-054>057-064-230600-
   West Central Minnesota

CITY           SKY/WX    TMP DP  RH WIND       PRES   REMARKS
FERGUS FALLS   MOCLDY    52  50  93 S6        29.94S FOG
WHEATON        PTCLDY    48  46  93 SW7       29.95S
MORRIS         CLOUDY    55  54  94 S5        29.94S
ALEXANDRIA     CLOUDY    55  54  96 SW6       29.96S
ELBOW LAKE     CLOUDY    52  52  98 S6        29.94R
WADENA         CLOUDY    52  52 100 S3        29.93S FOG
GLENWOOD       RAIN      55  54  94 SW5       29.96S
APPLETON       CLOUDY    57  54  88 CALM      29.95F
BENSON         CLOUDY    55  55 100 CALM      29.96S
ORTONVILLE     MOCLDY    54  52  94 S3        29.95S
MADISON        MOCLDY    55  54  94 S5        29.96F
WILLMAR          N/A     57  54  88 CALM      29.98S FOG
$$
MNZ033>034-036-042>043-049>051-058-059-230600-
   Central Minnesota

CITY           SKY/WX    TMP DP  RH WIND       PRES   REMARKS
ST CLOUD       CLOUDY    56  45  66 S8        29.98F
SAUK CENTRE    CLOUDY    52  51  95 S7        29.96S
PAYNESVILLE    HVY RAIN  51  49  96 SE7       29.97S
AITKIN         MIX PCPN  54  45  71 S12       29.94F
PINE RIVER     LGT RAIN  50  46  87 S3        29.98S
BRAINERD       CLOUDY    53  44  71 S14       29.96S
STAPLES        DRIZZLE   52  48  87 S7        29.94F
LONG PRAIRIE   CLOUDY    52  50  93 S8        29.95F
LITTLE FALLS   LGT RAIN  55  43  62 S10       29.96S
LITCHFIELD     LGT RAIN  55  52  88 S6        29.98S
BUFFALO        CLOUDY    55  43  63 S6        30.01S
MAPLE LAKE     CLOUDY    55  47  76 S7        30.00F
$$
MNZ037-044-045-052-053-230600-
   East Central Minnesota

CITY           SKY/WX    TMP DP  RH WIND       PRES   REMARKS
PRINCETON      CLOUDY    57  43  58 SE9       30.00F
MORA           RAIN      52  39  62 S7        30.02F
CAMBRIDGE      CLOUDY    57  43  58 SE8       29.99F
RUSH CITY      CLOUDY    52  39  61 S5        30.02F
MOOSE LAKE     CLOUDY    50  37  62 S8        29.99F
HINCKLEY       CLOUDY    54  39  58 S8        30.01F
CLOQUET        MOCLDY    50  36  57 S6        30.00F
MCGREGOR       CLOUDY    54  43  66 S13       29.99S
$$
MNZ071>073-080-081-089-090-097-098-230600-
   Southwest Minnesota

CITY           SKY/WX    TMP DP  RH WIND       PRES   REMARKS
MONTEVIDEO     CLOUDY    57  55  94 W5        29.98S
GRANITE FALLS  CLOUDY    56  55  95 SW7       29.99F
CANBY          MOCLDY    55  52  91 SW8       29.99S
MARSHALL       CLOUDY    55  52  88 W8        29.98F
REDWOOD FALLS  LGT RAIN  58  57  97 SW9       29.98S FOG
OLIVIA         CLOUDY    55  54  94 S8        29.97S FOG
PIPESTONE      CLOUDY    54  54 100 SW7       30.01S FOG
WINDOM         CLOUDY    57  55  94 S10       30.01S
WORTHINGTON    CLOUDY    57  57 100 SW8       30.02F
JACKSON        DRIZZLE   57  55  94 S12       30.02F
TRACY          CLOUDY    57  55  94 SW7       30.00S
SLAYTON        CLOUDY    55  55  99 SW10      30.02S
$$
MNZ065>067-074>077-082>085-091>093-230600-
   South Central Minnesota

CITY           SKY/WX    TMP DP  RH WIND       PRES   REMARKS
MANKATO        CLOUDY    55  41  58 S10G16    30.03S
NEW ULM        LGT RAIN  54  54 100 S12       29.99S
ST JAMES       LGT RAIN  57  52  82 S9        30.02S
FAIRMONT       CLOUDY    55  46  71 S16       30.02F
GLENCOE        CLOUDY    57  48  70 S8        29.99F
FARIBAULT      MOCLDY    55  43  62 S15       30.05S
OWATONNA       MOCLDY    55  41  58 S17G26    30.04F
WASECA         DRIZZLE   54  37  54 S15G22    30.05S
ALBERT LEA     CLOUDY    55  43  62 S14G21    30.06F
$$
MNZ078>079-086>088-094>096-230600-
   Southeast Minnesota

CITY           SKY/WX    TMP DP  RH WIND       PRES   REMARKS
ROCHESTER      MOCLDY    51  39  63 S13       30.09S
STANTON        PTCLDY    55  40  58 S12G22    30.03S
DODGE CENTER   MOCLDY    52  41  66 S16       30.06F
WINONA         LGT RAIN  48  45  87 SE6       30.11F
AUSTIN         CLOUDY    52  41  66 S12       30.08F
PRESTON        MOCLDY    49  40  69 SW8       30.14R
$$
ABBREVIATIONS USED IN REMARKS
   TC - TEMPERATURES IN CELSIUS
  WCI - WIND CHILL INDEX
   HX - HEAT INDEX
  VSB - VISIBILITY
$$



USA.gov is the U.S. government's official web portal to all federal, state and local government web resources and services.